Temp
82 82 86 84 86 63 73 76 67 70 78 74 61 64 70 68 60 54 65 63 70 77 80 79 84 87 87 87 87 88 86 87 87 87 87 87 88 88 88 87 87 85 85 86 87 87 86 86 86 86 85 85 84 83 82 81 81 82 82 82 81 82 82
83 87 87 87 87 85 75 69 72 81 82 79 66 53 56 54 50 54 66 62 59 64 57 81 79 78 84 86 88 91 85 88 86 87 87 87 88 88 88 87 87 86 86 85 87 88 87 87 87 87 86 87 85 84 84 82 82 81 82 82 82 82 81
83 87 86 82 86 89 78 75 85 72 59 60 61 63 49 49 49 51 61 66 64 64 64 75 77 79 79 80 85 90 85 87 87 86 87 87 89 89 88 87 86 86 86 86 86 87 88 88 87 88 87 88 86 85 85 84 83 83 83 84 83 83 82
82 83 80 67 74 84 87 85 80 83 72 64 56 63 62 58 48 54 53 62 55 70 71 76 78 80 81 80 79 85 88 87 89 87 87 87 88 88 88 88 87 87 87 88 88 88 88 88 87 88 89 89 88 87 85 85 85 84 83 83 83 82 83
81 70 75 72 74 71 74 74 71 75 73 76 70 69 64 54 51 49 52 51 61 67 77 81 81 82 82 82 82 78 84 88 90 89 89 88 88 88 89 89 88 88 88 89 89 89 89 90 89 90 91 90 89 88 86 85 84 84 84 84 84 83 83
71 74 82 81 80 79 76 74 70 73 70 63 60 53 72 68 59 47 53 52 59 76 90 83 83 85 86 84 84 84 81 87 89 90 90 89 88 88 89 90 90 89 88 89 90 90 90 90 90 90 91 91 90 89 88 87 86 85 85 84 84 83 83
72 79 84 87 86 84 82 79 74 78 75 69 60 46 56 66 66 72 64 56 57 71 80 82 86 87 88 86 86 83 85 85 89 91 91 91 89 89 91 91 91 90 89 88 88 88 88 88 88 89 90 91 90 89 89 88 86 86 86 86 85 84 83
75 82 86 86 86 84 79 80 81 78 73 75 66 62 64 62 63 60 59 54 58 69 79 82 87 86 89 88 89 82 85 87 88 91 91 90 88 88 91 92 92 91 89 88 87 86 86 86 87 88 89 89 90 91 90 89 87 87 87 87 86 85 84
60 68 78 78 83 82 76 75 78 80 79 79 77 74 68 61 64 65 55 48 56 69 77 82 85 88 89 88 89 86 85 84 86 90 90 90 89 88 90 90 89 89 89 87 85 86 85 85 87 87 87 88 89 90 91 89 88 88 88 88 87 86 85
47 48 52 58 64 70 76 78 78 79 78 76 73 64 59 51 57 64 58 56 63 73 75 77 80 80 80 87 88 89 86 83 87 89 90 89 89 87 88 89 88 88 87 87 85 85 84 85 86 85 86 88 89 91 92 92 89 89 88 88 88 87 86
49 56 59 72 75 73 69 74 76 77 80 80 76 66 57 54 53 61 56 60 63 71 75 77 79 79 79 79 80 81 81 80 81 86 86 89 87 87 88 88 89 88 85 84 85 84 85 87 87 87 88 88 90 90 91 93 92 90 89 89 88 87 87
61 64 67 75 78 72 74 74 74 78 78 78 73 68 61 61 59 48 61 63 66 68 74 75 75 78 76 79 80 81 80 81 82 86 86 88 88 87 88 88 87 85 84 84 84 84 85 87 87 88 89 91 91 91 92 93 93 92 91 89 88 87 87
66 70 72 75 75 77 76 76 76 75 77 77 73 69 71 68 57 52 60 63 65 68 75 76 75 76 79 81 82 83 83 85 83 82 87 87 86 84 86 85 85 84 83 82 83 84 86 87 87 88 90 91 91 92 93 92 94 93 92 90 89 88 87
64 68 72 75 74 74 75 76 76 77 78 77 77 74 76 73 64 67 66 65 71 78 79 78 78 80 84 84 84 83 82 84 84 85 86 88 87 86 85 84 85 84 84 84 83 84 85 87 88 90 90 90 91 92 92 93 93 94 92 90 88 88 87
60 65 67 68 73 74 69 73 77 77 77 78 79 78 77 75 74 78 73 67 67 76 80 79 80 84 84 82 83 85 84 86 87 86 87 86 85 85 85 82 84 83 84 84 83 83 85 87 88 90 90 91 92 94 93 94 93 94 94 90 89 88 87
54 62 65 68 70 73 70 68 71 72 74 73 76 75 77 71 66 71 71 65 66 75 80 80 81 81 81 79 79 80 80 83 82 84 87 84 83 84 85 85 84 83 85 84 84 85 87 89 89 90 89 91 92 93 94 94 95 96 95 92 90 88 88
50 62 61 63 68 65 61 63 69 71 71 74 80 81 79 78 78 70 63 64 72 74 79 78 78 80 79 78 78 77 78 78 82 82 82 83 83 83 80 80 81 85 86 85 85 88 90 91 91 92 91 91 90 92 93 94 95 95 95 93 90 88 89
48 58 63 66 56 46 49 69 77 74 72 74 76 76 79 80 80 72 70 70 75 77 80 78 76 78 77 78 76 79 78 78 79 82 82 84 86 85 85 86 88 85 82 84 85 86 86 88 92 91 91 91 91 93 95 94 95 94 94 94 91 89 88
46 54 56 50 43 48 66 74 76 79 78 78 75 77 83 81 80 82 79 77 75 74 76 78 78 77 78 81 82 83 82 80 80 79 81 80 83 82 83 83 82 79 81 83 83 84 87 90 88 89 89 90 89 92 92 92 93 90 92 93 91 89 88
50 47 50 43 46 61 73 74 77 81 79 77 75 66 69 70 68 75 78 78 78 79 79 79 79 82 83 83 81 81 83 83 83 84 83 83 83 81 81 80 80 83 85 84 85 83 85 88 90 91 91 92 92 92 93 90 90 92 90 90 89 87 88
42 46 47 51 60 62 67 67 67 67 66 70 65 57 60 65 68 70 73 78 82 80 80 81 81 82 82 76 76 83 83 83 85 86 84 84 84 84 84 84 82 81 82 83 84 84 84 85 87 91 92 94 93 92 91 92 87 89 89 87 88 86 87
49 42 45 50 48 45 51 57 65 72 72 79 76 68 60 67 67 72 71 73 79 80 80 79 79 81 73 68 70 79 83 84 84 85 86 86 85 84 84 83 84 82 81 83 84 85 84 84 85 86 89 92 89 89 89 90 89 88 87 86 86 84 85
47 45 42 44 46 48 53 57 65 69 71 75 78 65 54 63 65 71 71 69 71 75 78 78 78 72 65 65 70 77 81 82 84 82 83 84 85 84 84 83 82 82 80 80 83 83 82 83 84 86 86 88 89 84 85 92 91 89 87 85 84 83 84
47 46 40 41 48 44 54 60 66 68 70 76 69 49 47 61 65 70 70 69 69 70 71 72 70 68 63 64 70 80 81 82 82 81 80 80 82 83 84 84 83 81 81 82 82 85 85 83 85 86 86 84 82 84 84 88 90 89 88 86 83 84 85
48 48 46 50 51 57 60 61 67 67 71 70 51 42 51 62 67 69 70 69 69 70 69 70 66 68 71 73 77 80 81 80 79 81 81 82 82 82 83 81 82 82 83 82 82 84 81 82 84 84 84 82 81 80 80 82 82 86 88 86 84 84 84
44 45 39 46 49 55 60 63 66 68 65 47 45 55 64 66 67 69 69 69 69 70 69 68 68 71 74 75 76 76 78 77 77 79 80 80 81 83 82 82 82 81 82 81 83 84 82 83 84 83 82 80 80 79 79 80 81 86 84 84 85 85 84
50 47 43 40 34 51 63 62 62 64 52 51 59 62 67 69 68 67 68 69 69 70 68 70 70 71 72 73 73 74 75 76 76 76 77 77 77 79 79 78 80 81 79 80 81 81 83 83 81 81 82 79 79 80 78 79 82 82 83 84 85 85 84
41 40 36 37 49 54 63 59 49 57 58 62 64 64 62 67 68 66 66 68 69 70 69 68 69 70 70 70 71 72 73 74 74 74 74 75 77 79 80 80 78 79 78 79 79 79 80 79 80 80 79 78 79 78 78 80 81 82 82 83 81 83 83
46 42 46 52 55 57 63 59 58 62 67 67 66 63 64 64 65 68 66 66 70 70 69 69 68 68 70 69 70 70 70 72 72 72 72 73 74 76 76 76 76 77 78 77 77 77 77 77 78 78 79 78 78 77 79 79 80 81 81 81 81 81 81
57 58 57 58 59 61 61 65 63 62 66 69 68 63 59 62 66 67 66 67 69 70 70 68 67 68 69 69 69 69 70 71 71 71 72 72 73 75 76 75 75 75 78 77 76 75 75 77 77 77 78 78 76 76 80 81 81 80 80 80 80 80 80
48 41 57 58 57 61 60 59 65 64 66 65 66 62 61 62 66 68 68 68 68 69 69 68 66 67 68 67 67 67 67 68 69 70 69 70 71 72 72 72 74 74 75 74 74 74 73 74 76 77 78 78 78 78 79 80 81 80 80 80 80 80 81
49 49 55 58 61 61 63 63 60 63 62 63 65 65 65 63 65 66 67 69 68 69 68 67 67 67 68 66 65 67 67 67 68 68 68 68 69 71 72 72 72 72 73 72 72 72 72 73 75 75 76 76 78 78 79 80 80 80 80 80 80 80 81
53 57 59 58 59 60 62 63 63 64 64 63 64 65 66 65 63 64 66 68 67 67 67 68 67 66 66 67 66 67 67 66 66 67 68 68 68 70 70 72 72 71 72 72 72 72 72 73 74 74 74 75 76 76 77 78 78 78 78 80 79 79 80
46 48 51 54 46 47 56 61 62 63 64 65 64 64 64 64 62 61 63 66 67 68 67 67 67 65 66 67 67 67 68 67 68 67 67 68 69 70 71 72 72 72 72 72 72 71 72 72 73 73 73 74 75 77 76 77 77 77 76 77 78 79 79
41 50 53 54 52 53 56 58 62 62 63 63 62 60 62 64 65 64 62 63 64 64 65 67 66 65 65 66 68 68 69 69 70 69 68 68 68 69 71 71 71 71 72 73 72 71 71 72 72 72 72 73 74 76 76 76 76 76 75 76 76 76 76
51 54 54 55 53 51 55 59 61 62 62 63 62 61 62 63 63 64 63 63 62 62 63 65 66 66 66 67 69 67 68 70 71 71 71 70 70 71 71 71 72 71 71 71 71 72 72 73 72 72 72 73 74 76 76 76 76 76 76 75 75 75 77
48 54 55 55 55 56 58 59 60 62 64 64 61 61 62 61 62 64 62 61 62 62 62 63 66 66 66 67 67 67 67 70 71 72 72 73 74 72 71 71 70 69 70 71 71 71 72 72 71 71 71 72 73 75 75 76 76 75 75 76 76 76 77
MSLP
996.80 996.60 996.40 996.92 996.48 1004.08 1000.32 1000.52 1002.84 1001.48 999.36 1001.64 1004.48 1003.80 1003.16 1004.00 1005.72 1007.60 1003.68 1003.92 1002.52 999.80 998.96 998.12 997.36 997.24 997.08 996.40 996.68 996.96 997.92 998.16 998.44 999.32 999.72 1000.08 1000.20 1000.48 1000.76 1001.28 1001.72 1002.20 1002.48 1002.80 1002.96 1003.36 1003.88 1004.28 1004.72 1005.00 1005.28 1005.48 1005.92 1006.56 1007.28 1007.96 1008.40 1008.72 1009.04 1009.24 1009.44 1009.52 1009.76
996.04 994.88 995.20 995.92 995.72 996.32 999.16 1002.12 1000.36 998.52 997.80 999.68 1003.36 1007.32 1006.08 1006.84 1009.12 1007.52 1004.60 1006.00 1005.04 1004.64 1005.92 998.72 998.44 998.72 997.80 997.32 996.52 996.44 997.32 997.76 998.60 998.84 998.84 999.24 999.56 999.76 999.84 1000.24 1000.76 1001.32 1001.80 1002.24 1002.48 1002.64 1002.96 1003.44 1003.68 1004.08 1004.56 1004.96 1005.56 1006.12 1006.72 1007.52 1008.12 1008.64 1008.76 1009.04 1009.36 1009.48 1009.68
995.72 994.68 995.56 997.12 995.52 994.72 997.76 999.24 996.48 1001.32 1005.28 1005.88 1002.76 1004.28 1008.64 1009.40 1009.60 1007.64 1005.16 1004.04 1003.92 1003.52 1003.36 999.96 999.84 999.04 998.48 997.44 996.72 996.36 997.28 997.92 998.16 998.76 998.56 998.56 998.76 999.44 1000.12 1000.60 1000.96 1001.28 1001.60 1001.96 1002.16 1002.40 1002.48 1002.68 1002.96 1003.40 1004.04 1004.64 1005.24 1005.80 1006.24 1006.76 1007.40 1007.60 1008.04 1008.48 1008.92 1009.24 1009.40
995.12 995.64 996.60 1000.92 998.84 995.72 995.08 995.44 997.96 997.28 1000.08 1002.84 1004.76 1003.36 1003.24 1004.24 1007.64 1007.32 1005.76 1004.24 1005.12 1000.68 1000.32 998.68 998.48 997.72 997.36 996.88 996.68 996.68 996.40 997.32 997.36 998.16 998.48 998.80 999.04 999.32 999.64 1000.08 1000.40 1000.68 1000.96 1001.24 1001.48 1001.92 1002.36 1002.72 1003.12 1003.44 1003.72 1004.04 1004.64 1005.12 1005.72 1006.20 1006.56 1007.16 1007.80 1008.36 1008.76 1009.28 1009.36
995.12 998.80 996.60 998.08 997.80 999.16 998.72 998.96 999.68 999.40 999.76 998.20 1000.08 1001.04 1002.80 1004.56 1005.80 1005.84 1005.84 1006.28 1002.56 998.32 996.08 996.68 996.68 996.36 996.24 995.96 995.88 996.00 996.16 996.36 996.44 996.92 997.64 998.24 998.36 998.68 998.96 999.32 999.76 1000.20 1000.48 1000.64 1000.84 1001.08 1001.52 1001.92 1002.36 1002.76 1003.16 1003.52 1003.88 1004.44 1005.12 1005.48 1006.24 1006.76 1007.32 1007.68 1008.20 1008.64 1008.92
997.20 996.32 994.12 994.56 995.64 996.24 997.44 998.44 999.64 999.00 1000.84 1002.40 1004.56 1005.52 1000.96 1001.76 1003.96 1005.36 1005.00 1005.48 1000.80 996.36 993.52 994.76 995.20 994.72 994.72 994.68 994.84 995.44 995.56 995.92 995.84 996.36 996.52 997.12 997.88 997.92 998.08 998.48 998.96 999.56 1000.00 1000.24 1000.44 1000.72 1001.12 1001.72 1002.12 1002.44 1002.56 1003.08 1003.64 1004.00 1004.24 1004.72 1005.32 1006.00 1006.60 1007.20 1007.60 1008.04 1008.44
996.76 994.56 993.12 992.68 993.40 994.56 995.60 996.56 998.08 996.96 998.20 999.40 1002.36 1005.80 1003.80 1001.80 1001.68 1000.84 1001.80 1003.76 1001.24 995.28 994.12 993.48 993.40 993.56 993.76 994.00 994.12 994.92 994.88 995.04 995.60 995.56 995.80 996.20 996.72 997.28 997.56 997.96 998.40 998.88 999.40 999.80 1000.20 1000.64 1001.00 1001.28 1001.64 1001.92 1002.24 1002.64 1002.96 1003.32 1003.68 1004.12 1004.72 1005.32 1005.72 1006.32 1006.84 1007.40 1007.96
995.48 993.92 992.32 992.52 993.00 994.36 996.36 996.16 995.72 996.56 998.52 998.20 999.96 1000.96 1000.84 1002.56 1002.20 1003.28 1002.92 1004.24 1000.68 995.00 992.92 992.36 992.28 992.68 993.04 993.24 993.56 994.44 994.48 994.28 994.96 995.24 995.56 996.12 996.80 997.20 997.20 997.32 997.76 998.32 998.92 999.52 1000.16 1000.72 1001.12 1001.36 1001.64 1001.80 1001.96 1002.12 1002.44 1002.80 1003.12 1003.52 1004.12 1004.56 1005.12 1005.64 1006.20 1006.88 1007.40
998.64 997.08 994.52 994.80 993.60 994.44 996.32 996.88 996.08 995.72 995.92 996.60 997.16 997.72 998.20 1002.08 1001.72 1001.64 1003.40 1005.68 1001.68 995.76 993.12 992.48 992.72 993.20 993.72 993.88 993.68 993.68 994.32 994.08 994.76 994.68 995.32 995.72 996.28 996.96 997.20 997.52 997.88 998.24 998.84 999.64 1000.08 1000.36 1000.64 1000.96 1001.16 1001.56 1001.96 1002.24 1002.44 1002.56 1002.68 1003.16 1003.52 1003.88 1004.56 1005.00 1005.68 1006.24 1006.76
1003.24 1002.88 1001.52 999.96 998.36 996.84 995.72 995.60 995.88 995.72 996.24 996.96 998.40 1001.00 1000.68 1003.00 1001.16 1000.44 1002.48 1002.44 999.00 996.12 994.60 993.84 993.60 993.88 994.24 993.56 993.36 993.08 993.12 993.72 994.72 994.92 994.80 995.32 995.80 996.60 996.92 997.36 997.84 998.48 998.64 998.92 999.44 999.88 1000.24 1000.52 1000.84 1001.28 1001.60 1001.92 1002.20 1002.28 1002.28 1002.48 1003.16 1003.64 1004.08 1004.56 1005.12 1005.68 1006.12
1003.04 1000.28 998.00 994.68 994.48 995.88 997.68 996.64 996.36 996.36 995.80 995.68 996.72 998.24 1000.80 1002.08 1001.08 1001.40 1000.32 999.76 999.76 997.84 996.44 995.24 994.56 994.08 994.60 995.20 995.12 994.84 994.60 994.44 994.04 994.76 995.16 995.16 995.60 996.12 996.60 997.12 997.52 997.92 998.64 998.96 999.00 999.32 999.72 1000.04 1000.36 1000.80 1001.16 1001.56 1001.76 1001.84 1002.00 1002.08 1002.40 1003.04 1003.60 1004.16 1004.64 1005.12 1005.52
1000.00 998.68 997.72 995.20 993.96 995.88 996.00 996.56 996.76 995.72 996.08 996.04 997.32 999.20 1000.84 998.24 1000.24 1003.24 999.16 998.16 999.40 998.68 996.68 995.56 994.92 994.36 995.16 995.60 995.24 995.16 994.88 994.48 994.52 994.60 995.24 995.20 995.44 995.88 996.12 996.84 997.44 998.00 998.32 998.60 998.92 999.24 999.56 999.88 1000.08 1000.40 1000.56 1000.72 1001.00 1001.20 1001.52 1001.60 1001.92 1002.48 1002.96 1003.60 1004.24 1004.72 1005.12
998.52 996.96 996.08 995.28 994.92 994.12 994.64 995.40 995.64 996.12 995.64 996.12 997.52 997.96 997.24 997.20 1000.16 1001.48 998.88 998.04 998.84 998.12 996.32 995.40 995.32 994.28 995.36 995.40 995.12 994.68 994.48 994.08 994.40 995.00 995.16 995.80 996.28 996.56 996.76 997.00 997.32 997.80 998.44 998.76 998.92 999.16 999.28 999.52 999.96 1000.16 1000.32 1000.44 1000.48 1000.64 1000.76 1001.04 1001.36 1001.80 1002.16 1003.00 1003.64 1004.08 1004.52
998.88 997.32 995.84 994.88 995.48 994.80 994.76 995.00 995.24 995.08 995.28 995.88 996.08 996.88 996.20 996.68 997.68 997.28 997.88 997.72 998.08 996.64 995.64 995.00 994.64 994.36 994.44 994.56 994.12 994.24 994.72 994.76 994.68 995.32 995.68 996.08 996.44 996.80 997.12 997.32 997.52 997.68 997.96 998.36 998.72 998.96 999.28 999.48 999.76 999.88 1000.00 1000.08 1000.12 1000.36 1000.52 1000.60 1000.92 1001.08 1001.60 1002.28 1002.92 1003.40 1003.88
999.56 998.00 997.16 996.88 995.92 995.52 996.52 995.32 994.92 995.00 995.04 995.12 995.40 995.88 995.76 995.96 996.52 996.36 997.92 997.60 998.32 995.56 994.20 994.76 994.40 994.00 994.12 994.48 994.96 994.96 994.96 994.84 995.08 995.52 996.08 996.48 996.72 996.84 997.20 997.48 997.64 997.76 997.96 998.28 998.60 998.92 999.08 999.16 999.28 999.36 999.44 999.56 999.68 999.92 1000.08 1000.28 1000.56 1000.64 1001.04 1001.84 1002.32 1002.80 1003.28
1000.96 998.88 998.32 997.60 996.88 995.84 996.28 996.52 995.84 995.76 995.80 996.36 995.68 996.44 995.44 996.36 997.52 996.72 997.80 998.36 998.52 995.60 994.36 994.96 994.72 995.08 995.48 996.04 995.88 995.92 995.96 995.56 995.48 995.64 995.72 996.44 996.92 997.04 997.28 997.36 997.60 997.84 997.96 998.16 998.44 998.60 998.64 998.68 998.76 998.88 999.12 999.20 999.44 999.64 999.64 999.92 1000.08 1000.20 1000.64 1001.20 1001.76 1002.20 1002.52
1002.56 999.32 999.68 999.60 997.56 997.92 998.92 997.92 996.28 995.40 995.96 994.88 994.04 994.20 994.28 994.64 994.96 997.40 998.64 998.52 995.52 995.24 994.56 995.72 996.28 996.24 996.24 996.28 996.28 996.32 996.00 995.80 995.84 996.24 996.56 996.68 996.84 996.84 997.04 997.48 997.64 997.64 997.72 997.84 997.96 998.04 998.12 998.24 998.40 998.32 998.40 998.80 999.20 999.12 999.36 999.36 999.52 999.96 1000.28 1000.72 1001.28 1001.72 1001.92
1004.12 1001.16 999.68 998.68 1000.24 1003.24 1000.84 994.80 993.44 994.12 995.68 995.64 995.12 995.44 994.88 994.00 994.00 995.56 994.72 995.40 994.44 994.60 994.76 995.88 996.64 996.44 996.64 996.12 995.72 995.28 995.72 996.04 996.16 996.08 996.24 996.52 996.76 996.88 996.80 996.72 996.84 996.96 997.12 997.36 997.56 997.56 997.64 997.68 997.72 997.76 997.88 998.28 998.44 998.44 998.64 998.88 999.28 999.60 1000.00 1000.32 1000.72 1001.20 1001.44
1004.88 1002.52 1001.80 1002.24 1003.84 1001.80 995.52 993.28 993.20 993.40 993.96 994.44 994.64 993.56 993.64 994.12 993.68 993.60 994.04 994.84 995.24 995.40 995.08 995.24 995.44 995.76 995.52 995.00 995.20 995.28 995.16 995.40 996.36 996.80 996.56 996.60 996.40 996.64 996.80 996.92 997.08 997.24 997.12 997.24 997.44 997.56 997.52 997.44 997.44 997.60 997.88 997.84 998.04 998.28 998.36 998.84 998.88 999.36 999.60 999.92 1000.28 1000.68 1001.04
1003.88 1003.48 1003.00 1004.88 1002.24 997.32 994.36 993.92 993.60 993.08 993.56 993.84 994.52 998.32 999.00 999.08 999.32 996.60 994.72 994.76 995.16 995.00 995.36 995.32 995.16 995.12 995.28 995.72 996.44 996.68 996.60 996.56 997.08 997.44 997.88 997.76 997.72 998.32 998.32 998.28 997.96 997.56 997.56 997.68 997.64 997.64 997.24 997.20 997.36 997.44 997.64 997.48 997.88 998.20 998.08 998.52 998.80 998.96 999.32 999.68 999.92 1000.20 1000.56
1006.12 1005.20 1004.04 1001.16 997.92 997.08 996.36 997.64 998.04 999.08 998.40 995.96 996.52 1000.80 1001.20 999.40 998.32 997.68 996.32 994.72 993.88 995.36 995.60 995.32 995.20 995.08 995.84 998.00 998.60 997.28 997.28 997.28 997.08 997.32 997.80 997.92 998.08 998.12 998.16 998.08 998.32 997.92 997.68 997.80 997.68 997.40 997.52 997.60 997.60 997.52 997.32 997.36 997.64 997.92 998.20 998.32 998.56 998.88 999.12 999.44 999.56 999.76 1000.04
1004.64 1006.60 1004.68 1002.52 1001.80 1001.96 1002.44 1001.96 999.72 997.04 996.92 994.72 994.88 997.00 1001.36 999.48 999.64 998.52 998.52 996.92 995.04 995.20 995.48 995.60 995.36 995.52 998.44 1001.20 1001.16 999.08 998.04 997.60 997.84 997.52 997.52 997.64 998.00 998.24 998.32 998.04 998.00 998.00 997.88 997.60 997.28 997.28 997.44 997.52 997.60 997.64 997.56 997.52 997.72 998.00 998.16 998.20 998.48 998.80 999.00 999.20 999.16 999.40 999.64
1005.72 1005.56 1005.88 1004.16 1003.32 1003.20 1003.52 1001.96 999.68 998.00 996.36 995.68 993.96 998.16 1003.92 1001.88 1001.20 999.76 999.56 999.84 998.08 996.12 995.72 995.72 995.60 998.36 1002.00 1003.12 1001.68 999.76 998.72 998.32 998.00 998.44 998.52 998.32 998.20 998.24 998.36 998.60 998.80 998.64 998.44 998.04 997.84 997.68 997.84 998.20 997.80 997.60 997.64 997.80 998.00 998.28 998.28 998.16 998.20 998.60 998.76 998.80 998.92 999.12 999.28
1005.68 1005.32 1006.32 1005.64 1005.20 1006.08 1003.76 1001.56 999.60 998.48 996.64 995.00 995.68 1003.68 1007.24 1003.48 1001.88 1000.44 1000.20 1000.40 999.88 999.04 998.28 997.76 998.84 1000.44 1002.96 1003.08 1001.64 999.52 999.00 998.76 998.64 998.80 999.16 999.12 998.92 998.60 998.32 998.32 998.28 998.36 998.24 998.04 998.12 998.44 998.68 998.72 998.12 998.00 998.08 998.24 998.52 998.56 998.28 998.16 998.36 998.36 998.20 998.20 998.32 998.44 998.68
1005.64 1005.24 1005.08 1003.68 1004.16 1003.24 1002.68 1002.00 999.92 998.44 996.00 996.52 1002.72 1007.76 1006.80 1003.64 1002.12 1001.08 1000.60 1000.80 1000.64 1000.04 999.76 999.28 1000.76 1001.00 1000.64 1000.64 1000.00 999.40 999.24 999.40 999.56 999.32 999.20 999.24 999.08 999.20 999.12 999.08 998.60 998.68 998.56 998.56 998.80 999.04 998.96 998.68 998.48 998.36 998.36 998.76 999.04 998.80 998.48 998.36 998.40 998.04 997.64 997.56 997.72 998.04 998.28
1006.80 1006.04 1006.40 1005.32 1005.08 1004.00 1002.96 1001.88 1000.64 998.08 998.44 1005.36 1007.36 1005.48 1003.84 1003.12 1002.28 1001.48 1000.92 1001.20 1001.16 1000.80 1000.76 1000.88 1001.08 1001.08 1000.44 1000.20 1000.08 1000.16 1000.24 1000.36 1000.32 1000.16 1000.00 999.80 999.44 999.16 999.28 999.32 999.32 999.36 999.24 999.20 999.16 999.12 999.00 998.88 998.72 998.76 998.76 999.12 999.16 998.96 998.68 998.52 998.12 997.36 997.12 997.24 997.36 997.56 998.00
1005.16 1005.48 1005.84 1006.40 1008.12 1004.68 1002.88 1002.48 1001.32 1000.84 1003.56 1006.20 1005.08 1004.28 1003.28 1002.40 1002.32 1002.04 1001.60 1001.36 1001.52 1001.28 1001.60 1001.16 1001.24 1001.04 1000.80 1000.64 1000.76 1000.80 1000.80 1000.80 1000.92 1000.80 1000.64 1000.56 1000.48 1000.40 1000.40 1000.40 1000.04 1000.04 1000.16 1000.00 999.88 999.76 999.36 999.16 999.00 998.96 999.08 999.36 999.12 998.96 998.96 998.60 997.80 997.16 996.88 996.96 997.04 997.28 997.60
1007.76 1008.36 1009.36 1009.04 1006.12 1005.56 1003.76 1003.96 1006.12 1004.92 1004.40 1004.20 1003.96 1003.84 1003.96 1002.96 1002.52 1002.68 1002.40 1001.72 1001.44 1001.60 1002.00 1002.08 1001.76 1001.56 1001.48 1001.40 1001.36 1001.44 1001.36 1001.40 1001.40 1001.36 1001.32 1001.20 1000.88 1000.72 1000.68 1000.72 1000.68 1000.44 1000.60 1000.36 1000.16 999.96 999.76 999.68 999.52 999.28 999.28 999.64 999.40 999.28 999.16 998.24 997.76 997.32 997.00 996.96 997.12 997.32 997.52
1007.52 1008.08 1007.36 1006.00 1005.72 1005.32 1004.20 1004.44 1005.20 1004.64 1003.64 1003.60 1003.84 1004.04 1004.20 1003.96 1003.52 1002.76 1003.00 1002.80 1001.96 1001.64 1001.76 1002.00 1002.04 1002.12 1001.96 1002.16 1002.12 1002.36 1002.40 1002.20 1002.24 1002.24 1002.16 1001.96 1001.84 1001.60 1001.68 1001.56 1001.12 1000.92 1000.88 1000.84 1000.52 1000.36 1000.20 1000.00 999.88 999.84 999.60 999.80 999.80 999.72 998.92 998.08 997.96 997.68 997.40 997.20 997.32 997.56 997.76
1005.84 1005.12 1004.80 1005.08 1005.24 1005.04 1005.04 1004.44 1004.60 1004.84 1004.08 1003.60 1003.76 1004.52 1005.04 1004.64 1003.88 1003.44 1003.56 1003.16 1002.88 1002.60 1002.20 1002.28 1002.00 1002.00 1002.12 1002.20 1002.28 1002.28 1002.32 1002.36 1002.28 1002.20 1002.16 1002.12 1002.00 1001.84 1001.72 1001.68 1001.48 1001.28 1001.04 1000.84 1000.80 1000.96 1000.60 1000.28 1000.12 999.92 999.80 999.76 1000.08 999.80 998.88 998.44 998.08 997.76 997.52 997.48 997.60 997.72 997.80
1007.08 1007.92 1005.56 1005.56 1005.48 1005.20 1005.48 1005.60 1004.40 1004.48 1004.56 1004.40 1004.16 1004.56 1004.76 1004.80 1004.24 1003.76 1003.44 1003.28 1003.16 1002.96 1002.84 1002.88 1002.72 1002.52 1002.36 1002.60 1002.76 1002.68 1002.68 1002.72 1002.64 1002.60 1002.68 1002.60 1002.52 1002.44 1002.32 1001.88 1001.64 1001.52 1001.40 1001.36 1001.28 1001.16 1001.16 1000.60 1000.28 1000.08 999.96 999.72 999.60 999.28 999.00 998.56 998.20 997.92 997.80 997.76 997.72 997.72 997.92
1007.60 1007.28 1006.20 1005.48 1004.92 1004.84 1004.56 1004.72 1005.08 1005.00 1005.00 1004.64 1004.28 1004.16 1004.24 1004.48 1004.36 1004.00 1003.68 1003.44 1003.52 1003.16 1003.08 1002.84 1002.68 1002.68 1002.56 1002.84 1003.04 1002.88 1002.76 1002.76 1002.72 1002.72 1002.80 1002.88 1002.76 1002.44 1002.16 1001.84 1001.64 1001.64 1001.56 1001.56 1001.40 1001.28 1001.24 1000.84 1000.56 1000.40 1000.20 1000.00 999.60 999.36 999.00 998.60 998.40 998.16 998.08 998.08 998.12 998.04 997.96
1006.92 1006.44 1005.88 1006.24 1005.72 1004.96 1004.68 1004.96 1005.52 1005.36 1005.16 1005.16 1004.76 1004.36 1004.16 1004.32 1004.56 1004.28 1003.80 1003.56 1003.68 1003.60 1003.48 1002.96 1002.88 1003.08 1003.04 1002.84 1002.92 1003.00 1003.00 1002.88 1002.84 1002.88 1002.80 1002.76 1002.76 1002.56 1002.36 1001.96 1001.72 1001.84 1001.68 1001.60 1001.44 1001.36 1001.28 1000.88 1000.64 1000.52 1000.32 1000.08 999.80 999.60 999.32 998.92 998.60 998.56 998.40 998.20 998.16 998.16 998.08
1008.24 1007.64 1008.00 1007.76 1008.56 1008.48 1006.88 1006.24 1005.92 1005.48 1005.24 1005.04 1005.16 1004.88 1004.64 1004.32 1004.52 1004.64 1004.60 1004.20 1003.84 1003.72 1003.60 1003.40 1003.28 1003.64 1003.60 1003.28 1003.12 1003.28 1003.08 1002.92 1002.80 1002.76 1002.76 1002.68 1002.68 1002.52 1002.16 1001.88 1001.68 1001.60 1001.52 1001.48 1001.48 1001.40 1001.20 1000.88 1000.76 1000.68 1000.52 1000.24 999.96 999.68 999.44 999.16 998.92 998.88 998.64 998.44 998.48 998.40 998.32
1009.80 1008.40 1007.96 1008.20 1008.60 1008.28 1007.56 1007.12 1006.16 1005.60 1005.36 1005.40 1005.56 1005.72 1005.20 1004.84 1004.72 1004.96 1005.24 1005.20 1004.84 1004.64 1004.24 1003.80 1003.80 1003.88 1003.92 1003.68 1003.28 1003.28 1003.16 1002.96 1002.68 1002.52 1002.68 1002.80 1002.76 1002.56 1002.20 1002.12 1001.92 1001.80 1001.60 1001.40 1001.40 1001.40 1001.24 1000.96 1000.88 1000.84 1000.68 1000.40 1000.16 999.88 999.60 999.32 999.16 999.00 998.84 998.84 998.92 998.88 998.80
1008.52 1008.04 1007.84 1007.72 1008.04 1008.52 1007.96 1007.04 1006.04 1005.60 1005.36 1005.32 1005.44 1005.28 1005.08 1005.00 1005.08 1005.00 1005.12 1005.16 1005.20 1005.00 1004.64 1004.32 1003.96 1003.88 1003.88 1003.72 1003.56 1003.68 1003.44 1003.08 1002.92 1002.64 1002.48 1002.48 1002.44 1002.28 1002.08 1002.00 1001.92 1001.88 1001.76 1001.72 1001.64 1001.56 1001.20 1001.08 1001.08 1000.96 1000.80 1000.52 1000.32 1000.00 999.68 999.44 999.24 999.12 999.00 999.00 999.24 999.16 999.00
1009.00 1007.92 1007.84 1007.56 1007.36 1007.36 1007.44 1007.16 1006.24 1005.56 1005.24 1005.12 1005.16 1005.08 1005.00 1005.04 1005.00 1004.96 1005.12 1005.08 1004.88 1004.88 1004.84 1004.60 1004.12 1003.80 1003.92 1003.88 1003.80 1003.84 1003.76 1003.44 1003.04 1002.68 1002.52 1002.44 1002.24 1002.32 1002.32 1002.24 1002.24 1002.16 1001.96 1001.72 1001.56 1001.36 1001.32 1001.28 1001.20 1001.04 1000.96 1000.68 1000.28 1000.12 999.80 999.52 999.36 999.40 999.28 999.16 999.20 999.20 999.12
Wind_Speed
14 17 14 14 11 9 10 9 15 9 7 6 3 1 5 1 0 6 0 1 5 7 11 5 10 14 15 9 8 11 14 28 24 20 22 22 19 19 18 18 18 18 17 18 18 18 17 18 18 18 18 18 19 18 18 19 19 17 18 18 18 17 17
22 12 17 14 13 6 7 14 8 5 2 5 5 3 3 4 6 4 7 10 4 8 8 10 10 8 13 15 14 12 9 24 22 21 20 21 21 21 20 20 19 19 19 20 19 18 20 21 22 21 19 16 15 16 18 19 18 19 18 18 17 16 17
18 16 13 16 14 16 9 10 11 11 8 12 6 2 5 7 6 3 9 14 9 11 9 9 17 17 11 10 15 17 10 20 19 21 21 22 20 18 17 18 17 18 17 18 18 19 20 21 21 20 17 16 15 15 16 19 20 20 20 17 15 14 15
16 14 13 14 15 16 15 8 13 10 3 7 6 7 0 2 2 7 4 9 7 9 9 14 17 19 15 8 8 15 14 21 18 21 20 19 18 18 18 18 18 19 19 20 20 20 20 20 18 17 18 17 19 18 18 18 18 17 16 16 15 15 14
14 15 10 16 15 15 15 10 9 11 6 4 2 3 6 3 2 3 4 4 4 6 8 17 18 17 14 12 10 6 8 19 19 21 21 19 20 18 18 19 18 18 19 20 20 19 19 18 17 17 18 19 19 18 19 19 20 20 19 19 17 16 14
15 14 15 14 16 16 12 12 8 12 12 8 13 6 5 7 2 2 3 6 5 7 6 8 17 16 16 12 12 10 6 13 20 18 21 20 20 20 20 19 18 18 18 19 18 17 15 16 17 20 19 17 18 20 19 20 19 18 20 19 17 16 15
8 15 14 16 14 15 15 11 8 11 12 5 7 6 8 6 6 6 3 3 6 5 6 10 15 14 13 12 11 8 8 7 15 19 21 20 20 21 20 19 18 18 18 18 18 18 18 18 17 19 18 18 19 19 19 18 19 19 19 19 18 16 15
13 10 13 17 15 16 14 13 11 9 13 13 5 5 6 8 5 7 2 3 4 6 8 3 14 12 12 10 10 7 6 6 13 21 21 20 15 18 19 17 17 17 16 16 15 16 16 16 16 18 17 16 16 17 17 17 20 21 20 18 18 17 17
6 10 15 15 17 13 11 12 13 11 6 16 6 6 4 6 9 8 4 5 4 4 6 9 12 14 13 11 9 7 8 6 12 22 20 20 16 18 20 18 18 16 16 17 16 16 16 16 17 16 16 15 15 15 14 16 17 18 18 17 18 18 18
10 7 7 14 18 17 10 10 14 16 13 15 12 8 4 5 5 10 4 3 3 2 2 5 5 5 7 11 10 6 6 5 11 14 23 22 21 18 21 20 18 19 18 16 15 15 15 15 16 16 16 16 15 15 16 15 15 17 17 16 18 18 18
6 5 2 3 12 11 12 14 12 16 17 9 11 6 4 8 4 9 5 3 3 1 1 6 3 4 3 4 8 10 7 6 8 12 13 18 18 17 20 22 18 18 16 18 18 17 17 17 15 15 16 17 17 15 15 16 15 16 16 17 18 18 19
12 14 15 11 18 16 17 13 15 15 19 17 8 13 8 6 8 6 4 6 7 3 1 3 5 4 5 8 9 9 7 7 8 17 16 17 16 14 16 18 19 19 18 17 18 17 17 16 15 15 15 17 18 17 16 16 16 16 15 17 17 17 17
12 14 12 13 7 13 17 16 15 16 19 21 15 10 8 9 6 7 5 8 6 4 3 5 2 6 9 11 9 8 7 11 9 8 19 15 13 12 15 17 17 17 15 15 17 17 16 16 16 17 17 17 16 15 15 16 16 17 16 17 18 18 17
13 14 12 6 8 1 6 18 17 14 15 21 21 7 8 11 6 5 8 11 8 8 7 4 3 5 11 10 9 9 8 13 13 10 12 14 14 13 14 15 15 15 16 15 16 15 14 16 16 17 17 17 17 17 16 17 17 16 16 17 18 18 18
8 8 11 14 11 7 2 3 15 19 11 16 20 14 8 8 8 8 11 10 8 5 6 4 7 12 8 9 8 13 12 11 13 11 10 11 11 13 12 12 13 13 14 13 13 14 15 16 17 15 15 15 15 16 15 16 16 16 15 16 17 17 17
5 4 6 12 16 8 3 3 1 4 12 14 18 17 8 5 7 8 5 7 5 6 10 7 13 12 14 12 11 11 9 7 7 11 12 10 10 10 13 13 10 11 12 13 14 14 14 15 15 13 12 13 15 16 15 15 15 15 15 15 17 17 16
7 4 2 15 10 8 7 7 6 2 5 5 14 15 10 7 9 6 8 6 7 6 10 11 12 14 13 11 8 10 12 10 12 11 8 8 7 9 8 8 8 9 11 10 11 12 12 12 13 13 11 12 13 14 14 14 13 15 16 14 15 16 16
9 13 8 9 4 2 4 1 3 3 3 10 15 15 15 8 6 5 7 5 5 7 13 12 11 14 11 9 6 9 10 10 9 8 8 7 7 6 5 7 9 8 6 7 7 7 7 8 8 7 8 9 10 11 12 12 13 14 15 14 14 15 16
7 11 10 3 2 4 1 2 4 5 3 5 9 8 20 8 2 8 10 5 8 5 7 12 13 10 9 10 11 10 9 9 9 7 5 5 8 6 7 8 6 4 6 6 5 4 5 6 6 6 5 6 6 8 9 11 12 11 12 15 12 14 16
6 2 1 4 4 5 3 4 8 7 2 1 8 25 19 15 17 12 9 15 13 11 10 10 11 17 15 15 15 17 19 14 12 14 15 16 15 13 9 9 9 9 9 7 6 4 3 3 2 5 7 7 7 7 7 8 8 11 10 12 12 12 15
4 5 7 5 2 5 7 12 14 17 13 2 6 13 12 23 21 30 5 15 20 14 11 11 11 13 17 16 13 15 15 14 14 15 16 15 14 14 12 11 9 7 7 6 4 4 4 4 3 1 3 6 7 6 7 7 6 7 9 11 12 11 14
4 5 7 1 2 3 9 14 16 18 17 8 8 13 16 22 24 21 20 4 13 18 13 9 10 17 18 14 9 11 13 12 14 15 14 13 12 12 10 8 9 8 6 6 7 6 5 6 4 3 3 1 4 6 7 7 7 7 7 9 9 9 11
8 5 4 2 3 2 9 21 15 21 16 15 7 16 12 15 17 17 18 19 14 7 12 12 10 14 13 9 7 8 11 12 12 13 13 12 11 10 9 8 7 7 5 2 4 5 6 7 6 6 4 1 1 4 6 9 10 10 9 8 8 8 8
5 4 2 4 6 6 16 20 18 19 18 13 8 10 5 12 16 16 18 20 19 18 16 18 17 12 11 8 6 9 11 11 12 13 12 12 11 10 9 10 8 7 6 8 9 8 10 9 9 9 9 7 4 1 3 6 9 12 12 9 7 7 7
7 7 2 3 2 4 17 21 18 20 16 5 14 6 2 11 11 14 14 17 17 15 15 12 12 10 10 9 10 11 11 13 14 13 12 11 10 9 10 11 10 9 9 8 8 10 8 9 9 9 8 8 7 4 3 2 4 6 7 8 9 8 8
4 1 2 1 2 3 14 16 18 18 8 9 6 3 5 7 12 13 14 15 15 14 15 13 11 11 12 13 13 14 13 12 11 11 10 10 10 10 8 11 10 9 8 8 10 10 8 9 8 7 7 8 6 6 4 3 4 4 5 8 9 9 10
3 2 2 4 3 8 18 20 11 20 10 4 2 3 7 12 12 13 13 13 12 12 11 13 12 12 14 15 14 13 12 12 12 10 10 9 9 10 11 11 11 10 8 7 8 7 7 5 6 6 7 7 7 6 4 5 6 5 2 6 9 11 10
2 6 3 1 2 7 11 13 9 7 8 3 3 6 8 9 11 11 10 12 12 11 10 10 11 12 11 13 13 12 11 12 13 13 13 12 11 10 10 10 9 9 7 7 4 5 5 7 7 7 5 7 6 4 6 6 5 5 6 0 5 7 9
1 1 3 3 3 5 6 8 9 9 6 8 9 9 8 8 9 10 10 11 13 13 10 9 9 9 10 10 10 10 9 10 10 10 10 10 11 10 10 9 8 7 7 5 4 5 6 6 7 8 7 5 6 7 7 5 5 6 5 3 4 5 5
3 3 7 2 5 9 12 6 5 9 10 11 10 10 8 9 8 8 10 10 10 10 11 10 9 10 10 11 10 9 8 9 8 8 9 10 10 8 6 6 7 6 7 5 5 6 7 6 5 5 6 5 6 6 7 7 7 4 5 3 4 4 5
6 3 6 8 9 6 4 9 3 1 7 8 7 6 6 6 9 9 10 10 11 11 10 10 8 9 10 9 8 7 6 6 7 7 7 6 7 7 7 4 5 6 5 4 4 4 5 6 6 5 5 5 5 5 6 7 7 6 5 3 3 5 6
1 2 7 9 5 6 4 3 7 7 7 7 7 6 5 7 9 10 10 10 11 11 11 12 11 10 9 8 8 7 6 6 5 6 5 5 6 7 7 4 4 4 4 4 3 3 3 4 5 5 5 6 7 8 7 6 7 6 4 4 3 4 6
3 4 2 11 14 6 6 5 10 8 9 8 8 8 8 9 10 11 12 10 10 11 12 11 11 10 9 8 7 8 7 4 4 4 5 4 4 6 5 5 4 2 4 4 4 3 3 3 4 5 5 5 7 8 9 8 7 5 4 3 3 3 3
6 2 9 14 8 7 11 11 14 10 9 6 7 9 8 8 9 10 11 10 9 9 11 11 10 10 8 8 5 7 7 3 1 3 4 5 4 5 4 5 3 2 3 3 3 3 3 3 3 4 5 6 7 7 7 8 9 6 4 3 3 2 2
7 12 11 6 5 6 8 14 14 10 6 6 6 4 3 4 5 5 7 9 7 7 8 8 8 7 7 8 7 5 6 7 6 2 2 3 4 4 4 4 4 2 2 2 2 3 3 3 4 4 4 4 5 6 7 7 7 7 3 5 5 6 5
12 8 10 11 7 6 8 14 16 12 7 9 7 4 3 2 3 3 3 4 6 7 5 6 6 5 5 7 7 7 7 7 8 4 1 4 4 4 4 3 1 3 2 3 4 3 3 4 4 3 4 5 5 6 7 6 7 6 4 4 5 5 5
12 13 12 13 12 11 6 8 12 12 9 6 7 4 3 3 2 2 3 4 4 4 5 6 7 4 4 5 5 5 5 7 7 5 4 4 4 1 2 3 5 3 3 3 3 3 4 4 3 3 3 4 4 5 5 6 6 5 4 3 4 4 4
Wind_Direction
226 191 195 217 194 206 176 187 207 202 132 194 248 199 172 112 110 244 278 288 263 286 302 268 206 215 234 242 210 191 170 170 172 170 168 174 172 173 173 174 178 178 179 181 181 180 177 179 181 185 187 185 183 179 180 184 187 188 191 194 194 192 190
227 215 192 214 208 208 145 204 197 139 178 197 211 201 171 180 194 217 192 231 231 189 240 235 251 233 218 214 218 211 167 170 166 173 170 169 170 174 174 173 175 175 178 180 183 183 181 182 186 189 187 184 179 179 179 181 184 189 193 196 198 197 192
206 214 195 206 220 218 207 187 132 184 169 212 194 207 213 184 208 221 205 214 225 194 216 180 226 235 231 215 201 208 175 172 162 171 171 169 168 166 166 170 175 178 178 180 180 184 185 186 187 186 182 176 177 178 179 182 187 190 191 194 200 201 198
182 204 192 203 201 213 226 157 174 190 192 193 170 201 144 154 216 196 262 195 228 197 204 188 200 214 222 204 184 199 180 167 167 168 170 166 165 167 167 172 178 181 180 180 181 181 184 186 185 185 182 180 180 180 179 184 187 188 189 194 196 202 203
170 202 190 202 191 188 206 214 181 174 214 134 196 149 210 155 191 180 204 238 228 245 202 191 194 202 201 192 191 182 184 167 173 164 163 167 172 170 173 174 177 178 178 182 182 181 181 181 181 182 185 185 182 179 182 182 183 186 189 193 195 201 200
194 197 196 195 187 190 204 205 197 176 178 176 186 234 187 232 227 217 185 232 253 244 244 185 189 192 193 181 179 193 182 174 171 169 167 166 172 174 178 177 175 177 178 180 182 179 175 178 180 184 187 184 182 184 184 183 183 186 189 192 195 197 199
243 204 187 186 180 184 204 204 207 178 178 180 172 190 203 185 238 264 236 284 270 241 264 211 185 179 175 168 160 180 191 181 180 170 171 169 170 176 179 176 175 176 177 179 179 175 176 179 179 181 182 185 187 187 183 183 182 186 189 192 194 196 199
277 261 195 172 180 181 200 211 219 197 186 191 172 166 178 178 191 228 257 252 253 285 324 143 150 153 145 140 162 178 181 203 162 174 167 169 156 176 181 178 174 175 176 177 175 175 176 179 183 185 186 186 186 185 184 182 184 186 188 191 192 195 198
261 246 191 173 174 185 200 200 209 220 196 181 183 170 144 175 193 199 159 228 280 290 337 46 98 122 136 147 179 173 178 180 162 164 167 165 166 167 176 172 172 175 175 175 176 177 179 182 184 186 188 193 195 193 187 182 187 187 189 189 192 195 197
209 212 195 175 177 190 187 203 197 215 221 182 175 194 184 186 214 192 194 249 265 286 27 58 65 70 136 158 173 166 168 162 145 172 165 168 172 164 166 170 167 169 174 177 175 177 178 179 181 183 186 191 196 198 198 187 182 186 190 190 194 196 197
280 308 264 224 168 171 195 190 209 196 224 210 176 156 153 187 210 183 207 174 225 130 81 110 100 153 124 107 76 89 85 79 133 162 174 166 169 166 161 166 166 166 167 173 176 173 176 180 180 181 183 189 195 199 193 189 185 185 188 192 195 197 198
249 260 278 306 181 173 181 193 204 198 204 222 185 173 207 161 119 211 226 159 151 214 176 154 177 143 82 104 103 88 86 91 120 164 172 171 164 159 158 160 164 167 168 171 171 174 175 179 181 183 188 191 193 192 190 189 187 185 188 191 194 198 198
297 285 285 293 293 180 174 192 206 203 193 208 220 180 173 156 146 192 219 151 160 214 227 224 228 168 134 121 106 103 105 97 83 136 154 150 142 149 153 159 162 161 162 166 171 174 178 178 183 189 191 193 192 190 188 188 190 191 187 188 193 196 196
286 288 269 274 270 301 173 187 205 225 197 194 216 200 176 158 158 196 172 158 169 172 210 196 220 118 117 121 114 100 78 90 96 94 120 126 135 143 149 154 160 163 166 170 173 174 177 181 187 191 191 190 189 188 188 189 192 192 186 190 192 194 196
301 318 336 309 284 277 221 193 203 215 222 191 203 216 197 159 171 194 165 164 190 209 136 127 93 107 94 76 83 102 116 104 97 97 97 100 113 130 142 149 157 162 165 167 170 174 179 186 190 191 187 186 186 189 189 191 193 192 190 190 192 194 196
315 340 290 287 291 289 317 290 235 213 223 200 188 210 201 170 179 179 155 125 159 149 103 108 90 83 81 82 78 69 57 68 90 126 130 124 122 124 138 146 146 153 160 165 174 179 183 187 189 189 180 179 184 190 189 192 192 193 196 193 193 195 193
325 344 268 281 296 336 292 237 240 167 6 274 183 200 205 204 159 167 148 212 199 154 110 92 82 81 78 63 64 66 66 69 69 66 84 98 109 129 126 127 143 145 148 153 163 176 183 186 187 190 179 175 184 189 190 192 189 195 200 196 192 194 193
301 327 310 290 329 288 234 191 59 77 45 300 192 183 209 203 166 178 165 196 179 145 121 112 94 89 90 98 94 102 99 79 62 58 73 92 97 90 104 132 154 159 146 147 150 155 161 172 173 173 179 180 181 185 189 188 192 196 199 201 193 195 194
302 322 326 333 271 233 230 23 47 30 31 1 27 162 186 225 176 163 141 127 74 71 102 117 117 99 88 71 63 51 63 78 67 55 41 91 127 114 98 69 51 88 114 117 119 129 156 169 173 170 173 169 171 181 182 190 194 194 197 201 196 191 196
287 312 251 217 240 271 283 53 41 352 289 314 66 52 36 12 340 318 177 128 102 92 84 85 96 102 92 72 53 51 50 54 71 70 61 58 62 59 53 61 58 75 68 72 81 83 62 61 189 184 190 183 168 186 188 179 192 198 194 199 198 189 194
341 333 273 230 328 331 29 22 5 349 334 329 101 78 25 2 2 7 352 124 118 103 91 99 99 93 80 64 49 42 47 47 48 60 63 59 61 61 50 47 41 38 59 58 49 53 46 59 53 136 208 190 190 189 189 199 186 193 200 201 200 190 192
2 331 316 291 343 297 3 332 338 336 319 327 72 81 32 5 353 4 358 14 102 116 108 96 99 82 70 61 52 43 45 42 52 47 53 61 62 59 55 43 36 25 18 26 32 37 23 9 5 22 13 310 219 202 198 198 196 205 203 208 204 188 190
317 310 316 299 239 88 3 339 336 323 321 315 105 69 48 352 337 360 11 16 9 62 110 117 93 82 80 74 54 42 45 40 42 51 46 45 46 52 56 50 41 21 357 18 27 29 43 15 351 354 340 344 258 223 220 205 198 207 214 210 199 192 187
254 296 354 332 26 23 341 332 339 320 307 304 66 62 28 324 328 1 17 25 24 35 53 72 65 78 91 80 62 45 48 45 43 44 43 39 32 29 42 41 27 14 16 33 20 41 39 19 5 11 10 12 7 298 239 218 209 207 211 207 192 182 176
304 309 297 318 47 359 354 341 328 323 304 358 66 96 349 302 339 7 21 31 26 26 35 40 71 51 63 68 63 56 49 50 45 41 36 29 23 27 40 37 18 14 11 14 27 47 34 19 10 2 2 5 349 329 300 270 239 240 225 195 179 179 174
293 288 115 229 158 18 346 336 352 344 32 50 68 104 254 325 11 12 18 30 29 26 37 41 51 55 51 51 47 44 42 50 50 43 38 26 15 17 46 40 26 7 6 11 30 33 30 15 1 354 353 347 336 329 315 314 271 256 210 193 186 175 174
292 13 300 43 352 329 342 340 10 20 56 56 344 263 15 25 20 19 14 15 30 28 37 43 43 44 42 43 43 39 32 35 37 37 32 26 18 25 36 31 13 8 3 15 25 23 8 14 353 351 343 336 324 324 355 333 315 329 321 199 185 179 176
338 33 38 164 17 302 344 19 34 4 76 98 53 23 29 22 23 15 9 9 16 23 45 43 42 39 40 44 38 33 32 33 28 26 25 18 13 27 37 31 9 354 1 343 35 15 10 4 358 337 333 332 326 353 357 325 343 354 360 263 185 180 179
71 167 235 265 289 282 355 46 356 339 67 76 53 38 32 17 24 10 13 6 7 8 23 44 45 43 39 53 44 36 24 36 29 27 21 17 11 18 27 18 2 351 343 356 12 15 24 14 14 356 349 0 4 1 329 333 352 358 346 356 153 171 175
310 249 231 198 4 6 354 16 53 341 9 34 48 48 32 3 9 16 11 357 9 10 16 18 30 36 37 38 35 29 25 28 30 26 19 10 2 4 17 12 356 352 345 357 12 28 11 5 2 0 352 359 10 346 336 346 341 341 354 17 103 138 146
25 343 27 359 341 8 31 300 12 61 22 29 24 52 48 14 0 10 10 5 4 6 19 18 25 36 36 36 31 20 29 24 24 19 20 359 351 341 347 344 346 343 346 360 21 27 12 342 351 346 341 351 350 341 354 339 350 348 350 17 97 117 129
351 309 338 317 308 293 299 344 355 23 49 31 23 25 40 36 10 4 3 5 10 358 12 11 16 23 29 24 23 8 11 19 21 8 3 354 336 327 318 324 336 328 343 353 10 17 358 348 358 358 360 357 352 355 343 345 347 348 0 4 29 100 126
332 312 277 6 340 307 308 25 27 20 21 16 10 9 17 31 25 3 358 4 5 2 1 4 10 14 13 14 7 355 349 2 25 3 332 327 313 305 312 326 322 12 347 358 14 19 359 349 12 353 349 353 1 5 353 341 343 355 346 345 17 54 83
319 341 22 4 5 341 333 18 357 359 350 7 13 2 8 13 30 14 350 351 355 356 355 352 3 6 357 351 360 338 328 345 22 343 330 316 308 302 310 313 324 21 355 3 2 354 345 351 5 353 352 6 6 358 349 351 346 341 354 17 16 59 54
296 313 327 9 330 306 333 338 327 333 345 5 9 348 348 6 24 30 359 333 342 352 341 343 343 354 346 339 335 338 340 343 327 278 286 315 317 309 296 294 331 341 349 343 353 357 346 359 23 5 359 7 2 352 349 345 347 332 349 71 66 60 57
296 305 319 322 324 315 328 321 309 307 322 317 314 330 331 346 349 330 341 314 331 326 327 325 322 335 342 339 348 346 337 327 322 322 313 276 273 288 312 316 311 336 342 21 14 358 355 20 21 14 1 360 4 353 339 336 344 351 2 71 77 66 63
300 310 308 305 301 296 286 282 295 308 307 299 299 294 299 309 306 334 309 302 287 296 306 310 312 322 345 331 330 330 333 321 306 314 322 299 267 320 1 10 18 23 13 6 348 359 31 32 21 8 10 352 347 344 337 334 337 352 1 35 68 57 64